EW8570 Weather Reports


time (UTC)temp
F
wind
direction
speed
knots
gust
knots
rain 1hr
in
rain 24hr
in
rain mn
in
humidity
%
barometer
mb
20260508105554 40 53 0.0 2.6 0.00 0.01 0.00 82 1015.4
20260508105045 41 53 0.0 1.7 0.00 0.01 0.00 82 1015.3
20260508104534 41 53 0.0 2.6 0.00 0.01 0.00 81 1015.2
20260508104031 41 53 0.0 2.6 0.00 0.01 0.00 82 1015.1
20260508103911 42 286 0.0 2.6 0.00 0.01 0.00 81 1014.8
20260508103553 41 221 0.0 2.6 0.00 0.01 0.00 81 1015.0
20260508102516 42 296 0.0 1.7 0.00 0.01 0.00 80 1014.9
20260508102017 42 296 0.0 1.7 0.00 0.01 0.00 80 1014.9
20260508101516 42 12 0.0 1.7 0.00 0.01 0.00 79 1014.8
20260508101303 43 12 0.0 0.9 0.00 0.01 0.00 77 1014.7
20260508101031 43 12 0.0 0.0 0.00 0.01 0.00 78 1014.7
20260508100008 43 12 0.0 0.9 0.00 0.01 0.00 77 1014.5
20260508095824 44 12 0.0 1.7 0.00 0.01 0.00 78 1014.4
20260508095530 44 12 0.0 1.7 0.00 0.01 0.00 78 1014.5
20260508094508 44 12 0.9 1.7 0.00 0.01 0.00 77 1014.4
20260508094018 44 355 0.9 1.7 0.00 0.01 0.00 77 1014.4
20260508093459 44 94 0.9 2.6 0.00 0.01 0.00 76 1014.4
20260508093006 46 72 0.9 2.6 0.00 0.01 0.00 74 1014.3
20260508092759 46 341 0.9 4.3 0.00 0.01 0.00 69 1014.2
20260508092735 46 57 1.7 4.3 0.00 0.01 0.00 71 1014.1
20260508092511 47 61 0.9 2.6 0.00 0.01 0.00 72 1014.2
20260508092043 47 37 1.7 7.0 0.00 0.01 0.00 70 1014.1
20260508091609 47 346 1.7 7.0 0.00 0.01 0.00 68 1014.2
20260508090000 47 232 1.7 3.5 0.00 0.01 0.00 70 1014.2
20260508085458 47 300 1.7 5.2 0.00 0.01 0.00 69 1014.1
20260508084951 46 303 0.9 5.2 0.00 0.01 0.00 71 1014.1
20260508084458 46 236 0.9 3.5 0.00 0.01 0.00 72 1014.0
20260508083951 46 132 0.9 3.5 0.00 0.01 0.00 72 1013.9
20260508083738 47 350 0.9 2.6 0.00 0.01 0.00 73 1013.6
20260508083616 47 292 0.9 2.6 0.00 0.01 0.00 71 1013.6
20260508083501 46 351 0.9 1.7 0.00 0.01 0.00 73 1013.9
20260508083030 46 351 0.0 1.7 0.00 0.01 0.00 72 1013.9
20260508082023 47 350 0.9 2.6 0.00 0.01 0.00 72 1013.5
20260508080949 48 221 0.0 2.6 0.00 0.01 0.00 71 1013.5
20260508080454 48 59 0.9 1.7 0.00 0.01 0.00 70 1013.5
20260508075949 48 59 0.9 1.7 0.00 0.01 0.00 69 1013.4
20260508075449 49 96 0.9 1.7 0.00 0.02 0.00 68 1013.4
20260508075338 52 327 0.9 2.6 0.00 0.02 0.00 61 1013.3
20260508075315 50 60 0.9 2.6 0.00 0.02 0.00 66 1013.4
20260508075242 50 32 0.9 2.6 0.00 0.02 0.00 67 1013.3
20260508075151 51 27 0.9 2.6 0.00 0.02 0.00 64 1013.2
20260508074959 49 9 0.9 2.6 0.00 0.02 0.00 67 1013.3
20260508074535 49 9 0.9 2.6 0.00 0.02 0.00 67 1013.3
20260508074053 49 9 0.0 1.7 0.00 0.02 0.00 66 1013.3
20260508073110 50 60 0.9 2.6 0.00 0.02 0.00 66 1013.4
20260508072332 52 306 0.9 2.6 0.00 0.02 0.00 61 1013.2
20260508072001 51 346 0.0 1.7 0.00 0.02 0.00 66 1013.2
20260508071531 51 329 0.0 1.7 0.00 0.02 0.00 66 1013.2
20260508071103 51 329 0.9 2.6 0.00 0.02 0.00 64 1013.1
20260508070058 52 327 0.9 2.6 0.00 0.02 0.00 61 1013.2
20260508064439 52 94 0.0 1.7 0.00 0.02 0.00 61 1013.3
20260508063943 53 76 0.9 2.6 0.00 0.02 0.00 61 1013.3
20260508063437 53 76 0.9 3.5 0.00 0.02 0.00 61 1013.3
20260508062939 53 34 0.9 3.5 0.00 0.02 0.00 60 1013.1
20260508062448 54 31 0.9 3.5 0.00 0.02 0.00 62 1013.1
20260508062317 54 355 0.9 5.2 0.00 0.02 0.00 59 1013.2
20260508061957 54 12 0.9 3.5 0.00 0.02 0.00 60 1013.2
20260508060934 54 342 1.7 10.4 0.00 0.02 0.00 59 1013.2
20260508060801 56 311 2.6 7.0 0.00 0.03 0.00 60 1012.3
20260508060458 55 345 2.6 10.4 0.00 0.02 0.00 59 1013.3
20260508060012 55 38 2.6 7.0 0.00 0.02 0.00 59 1013.1
20260508055537 55 53 2.6 7.8 0.00 0.02 0.00 59 1013.3
20260508054944 54 327 2.6 7.8 0.00 0.02 0.00 59 1013.3
20260508054517 54 38 1.7 7.0 0.00 0.02 0.00 59 1013.2
20260508054037 53 146 0.9 3.5 0.00 0.02 0.00 64 1013.0
20260508053933 55 223 2.6 8.7 0.00 0.02 0.00 60 1013.2
20260508053842 54 155 0.9 3.5 0.00 0.02 0.00 64 1013.0
20260508053837 56 49 1.7 4.3 0.00 0.03 0.00 60 1012.4
20260508053444 54 342 2.6 8.7 0.00 0.02 0.00 59 1013.3
20260508053008 54 324 2.6 9.6 0.00 0.02 0.00 60 1013.3
20260508052528 54 57 2.6 9.6 0.00 0.02 0.00 61 1013.2
20260508052057 53 286 1.7 7.8 0.00 0.02 0.00 62 1013.0
20260508051614 53 41 1.7 7.8 0.00 0.02 0.00 63 1013.0
20260508045952 56 315 1.7 5.2 0.00 0.03 0.00 61 1012.4
20260508045922 55 240 0.9 3.5 0.00 0.02 0.00 62 1012.9
20260508045914 56 44 2.6 9.6 0.00 0.03 0.03 61 1012.4
20260508045842 56 267 3.5 9.6 0.00 0.03 0.03 62 1012.4
20260508045814 56 338 2.6 7.8 0.00 0.03 0.03 62 1012.3
20260508045444 56 273 1.7 7.0 0.00 0.02 0.00 60 1012.8
20260508045020 56 336 1.7 7.0 0.00 0.02 0.00 59 1012.7
20260508044547 56 61 1.7 7.0 0.00 0.02 0.00 60 1012.7
20260508044102 56 30 2.6 7.0 0.00 0.02 0.00 59 1012.5
20260508043615 56 26 2.6 7.0 0.00 0.02 0.00 59 1012.5
20260508043135 56 55 1.7 7.0 0.00 0.03 0.00 60 1012.4
20260508041532 56 221 2.6 7.0 0.00 0.03 0.00 60 1012.4
20260508041044 56 319 1.7 4.3 0.00 0.03 0.00 62 1012.4
20260508034858 56 304 2.6 7.8 0.00 0.03 0.03 61 1012.2
20260508033811 56 255 2.6 7.8 0.00 0.03 0.03 61 1012.2
20260508033304 56 342 2.6 7.8 0.00 0.03 0.03 61 1012.1
20260508032758 56 309 2.6 9.6 0.00 0.03 0.03 62 1012.1
20260508032254 56 15 3.5 9.6 0.00 0.03 0.03 62 1012.1
20260508031742 55 321 2.6 8.7 0.00 0.03 0.03 63 1011.9
20260508031604 55 279 1.7 7.8 0.00 0.05 0.03 65 1011.9
20260508031248 55 56 1.7 8.7 0.00 0.03 0.03 64 1012.0
20260508030810 55 282 1.7 6.1 0.00 0.04 0.03 66 1011.9
20260508025723 55 213 1.7 7.8 0.00 0.06 0.03 64 1012.0
20260508025220 55 298 1.7 7.0 0.00 0.07 0.03 65 1011.9
20260508024900 55 342 1.7 7.0 0.00 0.09 0.03 66 1011.6
20260508024726 55 296 2.6 10.4 0.00 0.08 0.03 65 1011.9
20260508024238 55 286 2.6 10.4 0.00 0.08 0.03 65 1011.8
20260508023800 55 49 1.7 7.0 0.00 0.09 0.03 67 1011.8
20260508022720 55 300 1.7 6.1 0.00 0.09 0.03 67 1011.6
20260508022226 55 294 1.7 6.1 0.00 0.09 0.03 65 1011.6
20260508022158 56 300 1.7 5.2 0.00 0.10 0.03 65 1011.5
20260508022133 56 273 1.7 4.3 0.00 0.10 0.03 64 1010.7
20260508022049 57 344 1.7 4.3 0.00 0.10 0.03 63 1010.3
20260508021727 55 321 0.9 3.5 0.00 0.10 0.03 66 1011.6
20260508021243 55 335 0.9 2.6 0.00 0.10 0.03 66 1011.6
20260508020750 55 316 0.9 3.5 0.00 0.10 0.03 65 1011.5
20260508020303 56 307 0.9 3.5 0.00 0.10 0.03 65 1011.5
20260508015426 58 284 0.9 3.5 0.00 0.10 0.03 61 1010.4
20260508015223 56 313 1.7 7.0 0.00 0.10 0.03 65 1011.4
20260508015119 58 295 1.7 3.5 0.00 0.10 0.03 61 1010.4
20260508014732 56 313 1.7 7.0 0.00 0.10 0.03 64 1011.3
20260508014256 56 259 1.7 4.3 0.00 0.10 0.03 65 1011.2
20260508013808 56 308 1.7 7.8 0.00 0.10 0.03 64 1011.1
20260508013328 56 351 2.6 7.8 0.00 0.10 0.03 64 1011.0
20260508012819 56 325 1.7 7.8 0.00 0.10 0.03 64 1010.8
20260508011745 56 196 1.7 4.3 0.00 0.10 0.03 64 1010.7
20260508011259 56 316 1.7 4.3 0.00 0.10 0.03 64 1010.5
20260508010806 56 315 0.9 4.3 0.00 0.10 0.03 63 1010.4
20260508010326 56 309 1.7 4.3 0.00 0.10 0.03 64 1010.3
20260508005841 57 5 1.7 4.3 0.00 0.10 0.03 63 1010.3
20260508004815 57 298 0.9 2.6 0.00 0.10 0.03 63 1010.4
20260508004339 58 315 0.9 2.6 0.00 0.10 0.03 63 1010.5
20260508002704 58 308 1.7 4.3 0.00 0.10 0.03 61 1010.3
20260508002201 59 315 2.6 7.0 0.00 0.10 0.03 60 1010.3
20260508002116 61 0 4.3 12.2 0.00 0.10 0.03 64 1009.5
20260508001722 59 330 3.5 7.8 0.00 0.10 0.03 60 1010.4
20260508001251 59 331 2.6 7.8 0.00 0.10 0.03 59 1010.4
20260508000752 59 278 1.7 5.2 0.00 0.10 0.03 60 1010.3
20260508000206 59 355 1.7 6.1 0.00 0.10 0.03 59 1010.4
20260508000101 61 296 2.6 7.8 0.00 0.10 0.03 66 1009.3
20260507235953 61 336 4.3 13.9 0.00 0.10 0.03 61 1010.1
20260507235706 60 329 2.6 6.1 0.00 0.10 0.03 59 1010.3
20260507235615 61 20 3.5 9.6 0.00 0.10 0.03 61 1009.7
20260507235217 60 24 2.6 8.7 0.00 0.10 0.03 59 1010.5
20260507234747 60 317 2.6 8.7 0.00 0.10 0.03 60 1010.4
20260507234305 60 343 1.7 4.3 0.00 0.10 0.03 60 1010.3
20260507233723 61 344 2.6 7.8 0.00 0.10 0.03 60 1010.1
20260507233248 61 304 3.5 7.8 0.00 0.10 0.03 59 1010.1
20260507232813 61 355 3.5 9.6 0.00 0.10 0.03 60 1010.2
20260507231804 61 306 4.3 13.9 0.00 0.10 0.03 61 1009.9
20260507231320 61 351 4.3 10.4 0.00 0.10 0.03 61 1009.8
20260507230204 61 263 3.5 7.8 0.00 0.10 0.03 62 1009.7
20260507225726 61 312 3.5 7.8 0.00 0.10 0.03 63 1009.7
20260507225245 61 270 2.6 7.8 0.00 0.10 0.03 63 1009.7
20260507224808 61 335 3.5 12.2 0.00 0.10 0.03 65 1009.6
20260507223744 61 265 3.5 10.4 0.00 0.10 0.03 65 1009.5
20260507222651 61 313 2.6 7.8 0.00 0.10 0.03 66 1009.3
20260507222306 62 88 3.5 9.6 0.00 0.10 0.03 67 1008.9
20260507222157 62 34 2.6 7.0 0.00 0.10 0.03 67 1009.2
20260507221707 62 329 2.6 7.0 0.00 0.10 0.03 67 1009.1
20260507221233 62 5 2.6 7.8 0.00 0.10 0.03 67 1009.0
20260507220154 62 0 3.5 9.6 0.00 0.10 0.03 66 1008.9
20260507215648 62 342 4.3 8.7 0.00 0.10 0.03 66 1008.8
20260507215509 65 310 4.3 11.3 0.00 0.10 0.03 69 1007.9
20260507215430 64 15 4.3 8.7 0.00 0.10 0.03 69 1008.0
20260507215352 64 342 4.3 10.4 0.00 0.10 0.03 69 1008.2
20260507215329 65 332 4.3 9.6 0.00 0.10 0.03 68 1008.0
20260507215154 62 297 5.2 11.3 0.00 0.10 0.03 65 1008.9
20260507214718 63 320 5.2 12.2 0.00 0.10 0.03 65 1008.9
20260507214241 63 306 6.1 12.2 0.00 0.10 0.03 65 1008.8
20260507213701 63 282 6.1 12.2 0.00 0.10 0.03 65 1008.8
20260507213220 64 355 4.3 10.4 0.00 0.10 0.03 67 1008.6
20260507212741 64 321 3.5 8.7 0.00 0.10 0.03 68 1008.4
20260507212244 64 5 3.5 9.6 0.00 0.10 0.03 71 1008.3
20260507211759 64 28 4.3 9.6 0.00 0.10 0.03 69 1008.0
20260507210203 64 10 3.5 10.4 0.00 0.10 0.03 68 1008.2
20260507205128 65 38 4.3 9.6 0.00 0.10 0.03 69 1007.9
20260507204047 65 312 4.3 11.3 0.00 0.10 0.03 69 1007.9
20260507203554 65 306 4.3 9.6 0.00 0.10 0.03 70 1007.8
20260507203032 65 306 4.3 10.4 0.00 0.10 0.03 70 1007.8
20260507202524 64 116 4.3 10.4 0.00 0.10 0.03 74 1007.7
20260507202022 64 126 3.5 9.6 0.00 0.10 0.03 74 1007.8
20260507201522 64 110 4.3 11.3 0.00 0.10 0.03 75 1007.8
20260507201014 63 113 5.2 13.0 0.00 0.10 0.03 74 1007.7
20260507200516 63 28 3.5 10.4 0.00 0.10 0.03 78 1007.8
20260507195957 62 30 3.5 10.4 0.00 0.10 0.03 77 1007.9
20260507195456 61 0 2.6 7.8 0.00 0.10 0.03 78 1008.0
20260507195256 60 84 2.6 10.4 0.00 0.10 0.03 83 1008.4
20260507194959 61 59 2.6 7.8 0.00 0.10 0.03 80 1008.2
20260507194516 60 88 3.5 10.4 0.00 0.10 0.03 81 1008.3
20260507193423 60 91 1.7 5.2 0.00 0.10 0.03 84 1008.6
20260507192922 59 144 1.7 5.2 0.00 0.10 0.03 84 1008.6
20260507192426 58 103 1.7 3.5 0.00 0.10 0.03 84 1008.6
20260507191359 57 105 1.7 5.2 0.00 0.10 0.03 85 1008.8
20260507190859 57 30 2.6 5.2 0.00 0.10 0.03 85 1008.6
20260507190351 56 16 2.6 7.0 0.00 0.10 0.03 84 1008.8
20260507185850 56 24 3.5 7.0 0.00 0.10 0.03 84 1009.0
20260507185344 57 44 2.6 7.0 0.00 0.10 0.03 84 1009.0
20260507184850 57 36 2.6 7.0 0.00 0.10 0.03 83 1009.0
20260507184347 57 51 2.6 6.1 0.00 0.10 0.03 83 1009.3
20260507183847 57 38 3.5 7.0 0.00 0.10 0.03 83 1009.3
20260507183347 57 11 3.5 7.8 0.00 0.10 0.03 82 1008.9
20260507183305 58 5 3.5 9.6 0.00 0.10 0.03 80 1008.9
20260507182908 58 58 3.5 8.7 0.00 0.10 0.03 81 1009.1
20260507182426 58 300 4.3 9.6 0.00 0.10 0.03 81 1009.2
20260507181342 58 350 2.6 8.7 0.00 0.10 0.03 80 1009.1
20260507180846 58 339 4.3 11.3 0.00 0.10 0.03 80 1009.4
20260507180340 58 327 4.3 11.3 0.00 0.10 0.03 80 1009.1
20260507175856 59 40 4.3 8.7 0.00 0.10 0.03 80 1008.9
20260507175344 59 13 3.5 8.7 0.00 0.10 0.03 80 1008.9
20260507174847 59 35 3.5 8.7 0.00 0.10 0.03 80 1008.9
20260507174346 59 5 4.3 10.4 0.00 0.10 0.03 80 1008.9
20260507173841 59 16 4.3 10.4 0.00 0.10 0.03 81 1008.8
20260507173335 60 72 3.5 7.8 0.00 0.10 0.03 80 1008.9
20260507172841 60 355 4.3 9.6 0.00 0.10 0.03 80 1009.0
20260507172342 60 10 3.5 9.6 0.00 0.10 0.03 80 1008.9
20260507171837 61 344 3.5 7.0 0.00 0.10 0.03 80 1009.0
20260507171344 61 340 3.5 7.8 0.00 0.10 0.03 80 1008.9
20260507170836 61 16 3.5 8.7 0.00 0.10 0.03 80 1008.8
20260507170336 61 323 3.5 8.7 0.00 0.10 0.03 80 1008.7
20260507165845 61 0 3.5 7.8 0.00 0.10 0.03 80 1008.9
20260507165339 61 355 4.3 7.8 0.00 0.10 0.03 80 1008.9
20260507164840 62 342 3.5 9.6 0.00 0.10 0.03 80 1008.8
20260507164339 62 346 3.5 9.6 0.00 0.10 0.03 80 1008.7
20260507163832 62 290 3.5 8.7 0.00 0.10 0.03 80 1008.6
20260507163339 62 315 3.5 8.7 0.00 0.10 0.03 80 1008.5
20260507162833 62 279 3.5 8.7 0.00 0.10 0.03 81 1008.5
20260507162334 62 5 4.3 8.7 0.00 0.10 0.03 80 1008.6
20260507161836 62 346 4.3 9.6 0.00 0.10 0.03 80 1008.7
20260507161333 63 317 4.3 9.6 0.00 0.10 0.03 80 1008.8
20260507160837 63 42 4.3 8.7 0.00 0.10 0.03 80 1008.9
20260507160433 63 355 2.6 6.1 0.00 0.10 0.03 82 1008.8
20260507160328 63 348 4.3 9.6 0.00 0.10 0.03 80 1008.8
20260507155858 63 318 3.5 9.6 0.00 0.10 0.03 81 1008.9
20260507155406 63 38 4.3 9.6 0.00 0.10 0.03 82 1009.0
20260507154936 62 16 2.6 8.7 0.00 0.10 0.03 82 1008.8
20260507154400 63 334 2.6 7.0 0.00 0.10 0.03 82 1008.9
20260507153330 63 337 2.6 6.1 0.00 0.10 0.03 82 1008.8
20260507152825 63 311 3.5 7.8 0.00 0.10 0.03 82 1008.8
20260507152326 63 5 3.5 8.7 0.00 0.10 0.03 82 1008.7
20260507151826 63 15 3.5 8.7 0.00 0.10 0.03 82 1008.7
20260507151710 63 31 2.6 6.1 0.01 0.10 0.03 84 1008.9
20260507151614 63 22 2.6 6.1 0.01 0.10 0.03 84 1008.9
20260507151514 63 355 2.6 7.0 0.01 0.10 0.03 85 1008.8
20260507151335 63 344 2.6 7.0 0.00 0.10 0.03 82 1008.8
20260507150849 63 27 2.6 7.8 0.00 0.10 0.03 83 1008.8
20260507150418 63 5 1.7 7.8 0.01 0.10 0.03 83 1008.8
20260507145942 63 5 1.7 6.1 0.01 0.10 0.03 83 1008.9
20260507144342 63 355 2.6 7.0 0.01 0.10 0.03 84 1008.9
20260507143302 63 56 2.6 7.0 0.01 0.10 0.03 85 1008.7
20260507142748 63 26 1.7 7.0 0.01 0.10 0.03 86 1008.5
20260507142240 63 305 1.7 5.2 0.01 0.10 0.03 87 1008.7
20260507141740 63 48 1.7 6.1 0.01 0.10 0.03 88 1008.8
20260507141227 62 355 1.7 6.1 0.01 0.10 0.03 88 1008.6
20260507140726 62 28 1.7 4.3 0.01 0.10 0.03 89 1008.8
20260507140219 62 327 2.6 5.2 0.00 0.09 0.02 89 1008.7
20260507135709 62 36 2.6 5.2 0.00 0.09 0.02 89 1008.6
20260507135204 61 5 2.6 6.1 0.00 0.09 0.02 90 1008.6
20260507134702 61 346 2.6 6.1 0.00 0.09 0.02 90 1008.5
20260507134153 61 42 1.7 4.3 0.00 0.09 0.02 90 1008.4
20260507133652 61 22 1.7 4.3 0.00 0.09 0.02 90 1008.5
20260507133138 61 0 1.7 4.3 0.00 0.09 0.02 90 1008.6
20260507132638 60 24 1.7 4.3 0.00 0.09 0.02 90 1008.2
20260507132133 60 48 2.6 5.2 0.00 0.09 0.02 90 1008.7
20260507131622 60 39 1.7 5.2 0.00 0.09 0.02 90 1008.9
20260507131114 60 18 1.7 4.3 0.00 0.09 0.02 90 1009.1
20260507130616 60 48 1.7 3.5 0.00 0.09 0.02 90 1009.1
20260507130112 60 57 1.7 4.3 0.00 0.09 0.02 91 1009.0
20260507125607 61 30 2.6 6.1 0.00 0.09 0.02 91 1009.2
20260507125052 61 348 1.7 6.1 0.00 0.09 0.02 91 1009.4
20260507124546 61 345 1.7 3.5 0.00 0.09 0.02 91 1009.5
20260507124056 62 316 0.9 3.5 0.00 0.09 0.02 91 1009.5
20260507123538 62 298 0.0 3.5 0.00 0.09 0.02 91 1009.5
20260507123031 63 285 0.0 0.0 0.00 0.09 0.02 91 1009.3
20260507122526 63 5 0.0 0.0 0.00 0.09 0.02 91 1009.5
20260507122131 63 239 0.0 1.7 0.00 0.09 0.02 91 1009.5
20260507122022 63 332 0.0 0.0 0.00 0.09 0.02 91 1009.5
20260507121547 63 239 0.0 0.9 0.00 0.09 0.02 91 1009.6
20260507120502 63 248 0.0 1.7 0.00 0.09 0.02 91 1009.7
20260507115952 63 218 0.0 1.7 0.00 0.09 0.02 91 1009.7
20260507115450 63 248 0.0 1.7 0.00 0.09 0.02 91 1009.3
20260507114949 63 154 0.0 1.7 0.00 0.09 0.02 91 1009.0
20260507114821 63 173 0.0 1.7 0.00 0.09 0.02 91 1008.8
20260507114749 63 153 0.0 1.7 0.00 0.09 0.02 91 1008.9
20260507114500 63 154 0.9 3.5 0.00 0.09 0.02 91 1009.0
20260507114036 63 161 0.9 3.5 0.00 0.09 0.02 91 1008.7
20260507112434 63 340 0.0 0.9 0.00 0.09 0.02 91 1008.9
20260507112049 63 308 0.0 0.9 0.00 0.09 0.02 91 1008.6
20260507111940 63 340 0.0 0.9 0.00 0.09 0.02 91 1008.8
20260507111511 63 207 0.0 0.9 0.00 0.09 0.02 91 1008.9
20260507110941 63 148 0.0 0.0 0.00 0.09 0.02 91 1008.7
20260507110518 63 346 0.0 0.9 0.00 0.09 0.02 91 1008.6